SCP
-0 -0 -0 -0 -0 -0 0 0 0 0 0 0 0 0 0 -0 0 0 -0 0 0 0 0 0 0 0 0 0 0 -0 0 0 0 0 0 0 0 -0 0 0 0 0 0 0
-0 -0 -0 -0 -0 0 0 0 0 0 0 0 0 0 0 0 0 0 0 -0 -0 0 0 0 0 0 0 0 0 0 0 0 0 0 0 0 0 0 0 0 0 0 0 0
0 0 -0 -0 -0 0 0 0 0 0 0 0 0 0 0 -0 0 0 0 -0 0 0 0 0 0 0 0 0 0 -0 -0 0 0 0 0 0 0 0 0 0 0 0 0 0
0 0 -0 -0 -0 0 0 0 0 0 0 0 0 0 0 -0 0 0 -0 0 -0 0 -0 0 -0 0 0 -0 0 0 -0 -0 -0 0 0 0 0 -0 -0 0 0 0 0 0
0 0 -0 -0 -0 0 0 0 0 0 0 0 0 0 0 0 0 0 0 -0 -0 -0 -0 0 -0 0 0 0 0 0 0 0 -0 0 0 0 0 0 0 0 0 0 0 0
0 0 0 -0 -0 0 0 0 0 0 0 0 0 0 0 0 -0 -0 0 -0 -0 -0 0 -0 -0 -0 -0 0 0 -0 0 0 0 0 0 0 0 0 0 0 0 0 0 0
0 0 0 0 0 0 0 0 0 0 0 0 0 0 0 0 -0 0 0 -0 0 0 -0 -0 -0 0 -0 -0 0 0 0 0 0 0 0 0 0 0 0 0 0 0 0 0
0 -0 0 0 0 0 0 0 0 0 0 0 0 0 0 0 0 0 0 0 0 -0 0 0 0 0 -0 -0 0 0 0 0 0 0 0 0 0 0 0 0 0 0 0 0
0 -0 -0 0 0 0 0 0 0 0 0 0 0 0 0 -0 -0 -0 0 0 0 0 0 0 0 0 0 -0 -0 0 -0 0 0 0 0 0 0 0 0 0 0 0 0 0
0 0 -0 0 0 0 0 0 0 0 0 0 0 0 0 -0 -0 -0 0 0 0 0 0 0 0 0 0 0 0 -0 0 0 0 0 0 0 0 0 0 0 0 0 0 0
0 0 -0 -0 0 0 0 0 0 0 0 0 0 0 0 0 -0 -0 0 0 0 0 0 0 0 0 0 0 0 0 0 0 0 0 0 0 0 0 0 0 0 0 0 0
0 0 -0 0 0 0 0 0 0 0 0 0 0 0 0 0 0 -0 0 0 0 0 0 0 0 0 0 0 0 0 0 0 0 0 0 0 0 0 0 0 0 0 0 0
0 0 -0 0 0 0 0 0 0 0 0 0 0 0 0 0 0 0 -0 0 0 0 0 0 0 0 0 0 0 0 0 0 0 0 0 0 0 0 0 0 0 0 0 0
0 0 0 0 0 0 0 0 0 0 0 0 0 0 0 0 0 -0 -0 0 0 0 0 0 0 0 -0 -0 0 0 0 0 0 0 0 0 0 0 0 0 0 0 0 0
0 0 0 0 0 0 0 0 0 0 0 0 0 -0 0 0 0 -0 -0 0 0 0 0 0 0 0 0 0 0 0 0 0 0 0 0 0 0 0 0 0 0 0 0 0
0 0 0 0 0 0 0 0 0 0 0 0 0 0 0 0 0 0 0 0 0 0 0 0 0 0 0 0 0 -0 0 0 0 0 0 0 0 0 0 0 0 0 0 0
0 0 0 0 0 0 0 0 0 0 0 0 0 0 0 0 0 0 0 0 0 0 0 0 0 0 0 0 0 0 0 0 0 0 0 0 0 0 0 0 0 0 0 0
0 0 0 0 0 0 0 0 0 0 0 0 0 0 0 0 0 0 0 0 0 0 0 0 0 0 0 0 0 0 0 0 0 0 0 0 0 0 0 0 0 0 0 0
0 0 0 0 0 0 0 0 0 0 0 0 0 0 0 0 0 0 0 0 0 0 0 0 0 0 0 0 0 0 0 0 0 0 0 0 0 0 0 0 0 0 0 0
0 0 0 0 0 0 0 0 0 0 0 0 0 0 0 0 0 0 0 0 0 0 0 0 0 0 0 0 0 0 0 0 0 0 0 0 0 0 0 0 0 0 0 0
0 0 0 0 0 0 0 0 0 0 0 0 0 0 0 0 0 0 0 0 0 0 0 0 0 0 0 0 0 0 0 0 0 0 0 0 0 0 0 0 0 0 0 0
0 0 0 0 0 0 0 0 0 0 0 0 0 0 0 0 0 0 0 0 0 0 0 0 0 0 0 0 0 0 0 0 0 0 0 0 0 0 0 0 0 0 0 0
0 0 0 0 0 0 0 0 0 0 0 0 0 0 0 0 0 0 0 0 0 0 0 0 0 0 0 0 0 0 0 0 0 0 0 0 0 0 0 0 0 0 0 0
0 0 0 0 0 0 0 0 0 0 0 0 0 0 0 0 0 0 0 0 0 0 0 0 0 0 0 0 0 0 0 0 0 0 0 0 -0 0 0 0 0 0 0 0
0 0 0 0 0 0 0 0 0 0 0 0 0 0 0 0 0 0 0 0 0 0 0 0 0 0 0 0 0 0 0 0 0 0 0 0 0 0 0 0 0 0 0 0
0 0 0 0 0 0 0 0 0 0 0 0 0 0 0 0 0 0 0 0 0 0 0 0 0 0 0 0 0 0 0 0 0 0 0 0 0 0 0 0 0 0 0 0
0 0 0 0 0 0 0 0 0 0 0 0 0 0 0 0 0 0 0 -0 0 0 0 0 0 0 0 0 0 0 0 0 0 0 0 0 0 0 0 0 -0 -0 0 0
Wind_Speed_500mb
37 42 43 45 47 51 23 3 5 28 15 7 6 4 13 20 11 22 7 6 7 8 3 10 12 12 15 34 29 20 11 5 6 8 7 14 7 13 12 7 3 2 4 7
33 38 40 41 43 45 20 5 6 20 14 6 6 10 6 10 13 14 16 10 11 13 6 8 4 8 8 42 23 28 16 5 6 5 8 6 14 10 10 11 5 5 7 7
30 35 37 40 39 41 15 5 5 11 16 12 5 10 9 15 20 6 17 8 13 18 10 11 11 15 9 25 21 19 33 7 10 9 8 11 13 15 9 11 6 7 7 11
26 33 36 40 40 35 6 10 4 5 6 7 8 9 11 16 21 16 23 5 22 19 8 13 15 9 5 14 17 14 8 14 11 9 13 16 27 27 22 8 8 12 9 11
26 33 34 38 40 28 32 8 4 4 4 9 8 15 11 8 8 9 13 17 29 20 3 6 11 15 5 3 18 13 8 3 9 7 8 10 17 19 27 26 8 10 5 9
17 28 31 36 39 36 20 13 7 5 9 6 4 4 7 10 20 14 16 24 23 16 8 35 46 33 29 13 1 14 8 5 4 4 1 11 2 21 30 12 10 23 15 14
11 21 27 30 36 38 32 22 8 5 3 3 3 5 7 9 15 12 27 36 11 14 58 42 3 9 20 13 9 11 6 5 4 4 2 4 1 4 17 15 11 12 6 7
10 15 23 23 30 32 31 30 12 7 4 4 1 11 5 24 21 8 15 11 27 42 27 9 8 5 8 4 4 7 3 6 5 7 6 7 3 4 7 11 9 11 11 7
5 11 19 20 24 26 26 29 25 9 10 6 4 6 6 6 11 12 8 32 25 25 2 6 6 3 4 9 16 4 5 8 6 3 4 2 3 5 1 6 7 5 20 14
6 8 15 20 23 23 23 22 25 13 3 4 3 3 3 4 7 6 14 28 21 26 8 5 5 4 1 5 8 8 7 7 5 3 3 6 5 7 1 5 6 5 13 18
6 6 13 17 20 22 22 21 20 20 9 10 6 8 10 7 3 4 19 13 7 10 8 6 4 3 4 4 4 5 2 3 1 3 5 1 7 1 5 5 7 6 18 18
5 6 11 12 18 22 23 18 21 18 8 10 23 11 7 10 17 18 6 6 5 8 5 7 4 5 5 1 6 5 3 5 3 6 7 6 6 3 2 3 10 12 16 12
5 5 9 12 15 19 22 17 19 19 10 8 13 14 11 9 24 23 8 5 2 5 13 6 5 5 2 3 4 6 5 3 1 4 1 1 3 7 7 11 13 13 11 9
5 1 8 10 14 16 18 18 12 18 7 6 5 21 13 5 10 10 19 28 19 21 22 8 6 4 4 4 6 4 7 5 2 6 5 1 2 5 8 13 12 10 8 6
6 2 5 8 13 18 15 8 15 20 11 0 18 12 6 13 18 17 16 20 24 16 11 6 3 5 3 2 3 6 6 6 5 6 6 2 2 10 9 8 10 9 6 4
9 2 5 9 9 12 4 1 3 17 21 5 5 14 11 23 26 15 13 23 20 12 6 11 12 9 5 2 4 9 7 10 10 4 3 5 8 10 9 5 5 5 5 6
12 3 7 6 5 7 4 2 4 16 10 5 8 16 8 25 14 11 3 11 6 12 7 9 8 8 4 4 7 9 11 7 5 5 9 7 9 5 7 5 4 4 5 7
12 4 5 6 20 9 4 5 4 9 4 5 3 7 12 23 10 9 4 6 10 12 10 9 8 5 9 7 12 12 8 3 3 3 1 1 4 10 7 5 2 3 5 7
12 5 10 19 5 3 2 5 8 8 6 6 5 5 7 24 12 10 6 11 7 10 5 7 6 5 9 10 9 4 5 5 4 4 2 3 5 6 5 6 10 12 11 12
14 18 8 9 3 11 15 4 4 7 10 9 5 5 6 15 9 7 10 8 4 5 9 7 5 7 24 13 9 5 6 6 6 5 4 4 5 5 5 8 10 13 16 18
19 12 9 11 18 7 4 4 4 2 4 2 4 9 7 13 4 4 6 5 4 5 5 5 4 5 1 3 5 6 4 3 2 4 6 7 9 11 12 15 17 17 20 22
16 14 20 14 7 5 8 1 0 2 4 2 5 8 16 13 9 8 8 6 4 9 6 5 5 3 1 7 5 4 3 4 5 8 9 9 10 11 13 14 14 16 17 19
22 9 9 7 3 9 8 5 6 2 8 6 7 8 7 7 9 13 5 7 8 3 5 6 3 11 6 7 7 5 5 10 9 5 5 4 3 3 3 5 7 10 13 15
8 11 3 5 2 6 7 7 8 5 5 4 12 9 6 6 6 7 7 6 4 5 3 5 4 26 23 14 12 10 7 5 7 6 5 4 4 5 7 8 11 13 14 15
7 8 6 6 5 6 9 6 4 7 4 7 8 10 8 5 6 6 8 7 5 3 4 6 32 39 26 21 20 14 16 9 3 4 4 3 4 5 8 11 13 14 15 16
5 6 9 9 6 5 11 14 10 8 2 6 3 5 5 7 5 7 6 11 8 7 9 38 49 40 29 21 22 20 20 12 6 2 2 5 8 11 13 14 16 16 16 16
5 6 8 12 6 5 6 9 13 6 4 1 2 5 7 7 6 5 3 3 4 23 45 43 45 38 31 17 19 21 23 20 10 3 4 6 9 11 12 12 14 16 16 18
Wind_Direction_500mb
345 353 356 357 358 359 11 62 47 10 7 37 35 24 332 320 304 350 288 256 276 313 231 206 213 236 219 181 148 174 203 136 167 194 235 188 160 165 157 125 190 51 141 284
347 354 360 4 4 1 7 54 30 27 33 67 358 319 343 352 323 330 344 328 348 334 341 341 251 344 66 173 153 158 163 237 106 159 329 164 210 192 135 107 88 233 113 266
349 356 4 11 12 5 22 47 28 30 55 70 356 358 353 349 323 325 338 312 339 350 15 352 343 6 137 179 168 170 189 165 197 172 192 137 207 175 142 147 127 169 242 306
358 6 9 13 19 22 48 50 93 62 339 354 342 335 11 351 3 342 334 349 4 350 343 350 358 359 42 170 170 181 209 223 208 276 231 169 175 177 170 149 182 162 214 217
16 8 13 15 23 38 57 67 96 105 331 325 351 7 21 328 341 299 324 352 333 319 6 15 314 328 327 340 162 161 189 226 159 28 49 117 185 184 188 196 182 271 187 250
5 7 18 16 26 42 54 52 83 133 7 358 61 27 314 305 325 277 282 329 312 312 334 309 286 263 260 265 287 192 204 210 81 335 24 112 203 204 189 181 168 199 206 225
23 14 24 18 26 44 44 48 76 107 70 45 57 332 300 293 316 268 286 310 299 305 315 316 279 238 248 245 254 230 172 127 104 148 37 200 239 282 179 196 171 197 178 197
50 32 31 22 27 36 36 41 39 84 104 245 296 321 285 315 320 281 293 311 304 318 321 355 0 20 11 328 24 10 350 127 97 145 193 280 9 50 130 163 261 201 205 220
69 56 40 27 28 26 28 40 35 54 123 225 297 294 330 329 334 340 294 332 344 349 297 30 25 9 329 326 336 17 27 69 119 162 114 32 304 329 250 139 298 243 180 184
92 72 55 29 29 23 16 30 33 21 17 167 235 267 283 360 9 298 303 338 338 5 3 52 46 320 272 355 336 331 346 358 81 47 82 310 273 320 73 117 253 355 182 164
98 70 61 30 26 21 12 7 16 29 313 278 228 304 273 306 5 354 318 334 0 343 5 18 339 341 324 339 281 314 277 35 344 103 70 2 2 34 146 247 354 146 141 149
106 77 54 19 19 14 11 360 357 353 319 307 313 332 317 285 282 266 294 272 276 336 343 352 318 332 350 10 313 348 336 176 226 169 214 264 318 294 337 68 98 97 122 129
130 76 58 18 13 8 10 2 354 350 331 350 46 41 351 323 307 297 213 278 356 27 1 289 291 285 136 336 283 306 300 173 241 30 286 311 73 79 103 114 110 97 104 110
152 52 61 9 8 357 352 350 15 33 24 47 331 343 15 325 325 310 256 258 275 311 320 260 262 262 192 248 260 206 232 6 250 286 297 312 236 158 116 107 103 99 98 99
167 247 42 2 357 345 352 75 76 42 22 276 305 332 14 343 327 293 254 242 248 285 305 271 258 269 264 207 350 263 194 208 162 233 259 201 193 160 142 126 108 96 98 93
187 203 346 353 2 349 116 239 75 16 32 84 333 321 334 328 328 324 269 230 236 211 234 267 272 264 216 262 263 264 281 274 265 292 328 236 159 158 153 140 94 63 36 28
187 192 320 348 97 116 90 44 48 5 16 75 316 329 330 348 355 327 331 191 196 195 250 242 261 277 257 248 242 252 342 329 253 185 137 114 161 191 180 173 140 96 49 18
168 224 325 138 132 112 85 63 341 359 62 65 73 287 335 359 339 326 263 205 213 231 255 247 228 253 240 246 239 253 270 269 202 184 235 256 189 183 186 197 232 282 305 318
169 190 133 136 144 105 39 82 90 68 71 101 66 1 296 343 339 307 266 217 227 217 245 248 197 215 233 231 223 242 216 208 248 198 180 169 190 196 225 272 291 297 293 295
169 152 152 152 118 121 128 69 56 39 26 43 46 299 282 323 336 297 293 239 241 229 227 231 224 252 250 248 246 228 206 217 224 236 254 243 217 234 270 292 299 301 302 302
167 154 130 140 144 125 95 75 49 56 46 42 279 259 299 301 247 275 255 293 252 251 217 227 229 271 280 190 172 166 173 197 286 264 256 266 262 269 279 286 293 300 301 302
165 142 130 140 141 121 92 13 73 149 176 303 287 300 302 294 272 259 260 253 221 254 165 237 252 301 5 164 179 179 234 261 267 280 280 279 279 282 288 295 303 311 317 318
142 135 132 152 97 50 131 188 293 284 176 201 324 327 283 298 262 265 252 253 242 204 218 234 237 339 304 216 217 225 258 272 264 244 234 230 271 335 348 348 343 336 331 331
141 162 112 126 289 234 191 177 173 128 182 322 322 279 263 274 271 249 257 251 264 319 260 246 7 352 337 267 239 249 241 175 143 113 83 51 25 5 346 337 337 337 337 338
161 168 179 177 144 133 156 138 177 189 247 293 303 279 245 256 271 242 272 250 236 225 339 11 335 328 317 281 248 244 212 188 159 112 90 58 28 3 353 344 343 343 343 343
162 138 101 128 117 182 191 206 237 171 252 313 211 262 262 261 248 259 257 327 43 360 330 318 333 331 317 286 249 234 215 194 188 162 38 11 360 349 338 333 337 339 339 342
125 93 127 135 116 147 159 172 145 132 38 96 231 234 238 328 289 254 53 141 267 312 317 326 333 328 324 294 257 229 218 193 186 195 317 327 330 327 327 330 333 336 339 342
Wind_Speed_850mb
37 42 43 45 47 51 23 3 5 28 15 7 6 4 13 20 11 22 7 6 7 8 3 10 12 12 15 34 29 20 11 5 6 8 7 14 7 13 12 7 3 2 4 7
33 38 40 41 43 45 20 5 6 20 14 6 6 10 6 10 13 14 16 10 11 13 6 8 4 8 8 42 23 28 16 5 6 5 8 6 14 10 10 11 5 5 7 7
30 35 37 40 39 41 15 5 5 11 16 12 5 10 9 15 20 6 17 8 13 18 10 11 11 15 9 25 21 19 33 7 10 9 8 11 13 15 9 11 6 7 7 11
26 33 36 40 40 35 6 10 4 5 6 7 8 9 11 16 21 16 23 5 22 19 8 13 15 9 5 14 17 14 8 14 11 9 13 16 27 27 22 8 8 12 9 11
26 33 34 38 40 28 32 8 4 4 4 9 8 15 11 8 8 9 13 17 29 20 3 6 11 15 5 3 18 13 8 3 9 7 8 10 17 19 27 26 8 10 5 9
17 28 31 36 39 36 20 13 7 5 9 6 4 4 7 10 20 14 16 24 23 16 8 35 46 33 29 13 1 14 8 5 4 4 1 11 2 21 30 12 10 23 15 14
11 21 27 30 36 38 32 22 8 5 3 3 3 5 7 9 15 12 27 36 11 14 58 42 3 9 20 13 9 11 6 5 4 4 2 4 1 4 17 15 11 12 6 7
10 15 23 23 30 32 31 30 12 7 4 4 1 11 5 24 21 8 15 11 27 42 27 9 8 5 8 4 4 7 3 6 5 7 6 7 3 4 7 11 9 11 11 7
5 11 19 20 24 26 26 29 25 9 10 6 4 6 6 6 11 12 8 32 25 25 2 6 6 3 4 9 16 4 5 8 6 3 4 2 3 5 1 6 7 5 20 14
6 8 15 20 23 23 23 22 25 13 3 4 3 3 3 4 7 6 14 28 21 26 8 5 5 4 1 5 8 8 7 7 5 3 3 6 5 7 1 5 6 5 13 18
6 6 13 17 20 22 22 21 20 20 9 10 6 8 10 7 3 4 19 13 7 10 8 6 4 3 4 4 4 5 2 3 1 3 5 1 7 1 5 5 7 6 18 18
5 6 11 12 18 22 23 18 21 18 8 10 23 11 7 10 17 18 6 6 5 8 5 7 4 5 5 1 6 5 3 5 3 6 7 6 6 3 2 3 10 12 16 12
5 5 9 12 15 19 22 17 19 19 10 8 13 14 11 9 24 23 8 5 2 5 13 6 5 5 2 3 4 6 5 3 1 4 1 1 3 7 7 11 13 13 11 9
5 1 8 10 14 16 18 18 12 18 7 6 5 21 13 5 10 10 19 28 19 21 22 8 6 4 4 4 6 4 7 5 2 6 5 1 2 5 8 13 12 10 8 6
6 2 5 8 13 18 15 8 15 20 11 0 18 12 6 13 18 17 16 20 24 16 11 6 3 5 3 2 3 6 6 6 5 6 6 2 2 10 9 8 10 9 6 4
9 2 5 9 9 12 4 1 3 17 21 5 5 14 11 23 26 15 13 23 20 12 6 11 12 9 5 2 4 9 7 10 10 4 3 5 8 10 9 5 5 5 5 6
12 3 7 6 5 7 4 2 4 16 10 5 8 16 8 25 14 11 3 11 6 12 7 9 8 8 4 4 7 9 11 7 5 5 9 7 9 5 7 5 4 4 5 7
12 4 5 6 20 9 4 5 4 9 4 5 3 7 12 23 10 9 4 6 10 12 10 9 8 5 9 7 12 12 8 3 3 3 1 1 4 10 7 5 2 3 5 7
12 5 10 19 5 3 2 5 8 8 6 6 5 5 7 24 12 10 6 11 7 10 5 7 6 5 9 10 9 4 5 5 4 4 2 3 5 6 5 6 10 12 11 12
14 18 8 9 3 11 15 4 4 7 10 9 5 5 6 15 9 7 10 8 4 5 9 7 5 7 24 13 9 5 6 6 6 5 4 4 5 5 5 8 10 13 16 18
19 12 9 11 18 7 4 4 4 2 4 2 4 9 7 13 4 4 6 5 4 5 5 5 4 5 1 3 5 6 4 3 2 4 6 7 9 11 12 15 17 17 20 22
16 14 20 14 7 5 8 1 0 2 4 2 5 8 16 13 9 8 8 6 4 9 6 5 5 3 1 7 5 4 3 4 5 8 9 9 10 11 13 14 14 16 17 19
22 9 9 7 3 9 8 5 6 2 8 6 7 8 7 7 9 13 5 7 8 3 5 6 3 11 6 7 7 5 5 10 9 5 5 4 3 3 3 5 7 10 13 15
8 11 3 5 2 6 7 7 8 5 5 4 12 9 6 6 6 7 7 6 4 5 3 5 4 26 23 14 12 10 7 5 7 6 5 4 4 5 7 8 11 13 14 15
7 8 6 6 5 6 9 6 4 7 4 7 8 10 8 5 6 6 8 7 5 3 4 6 32 39 26 21 20 14 16 9 3 4 4 3 4 5 8 11 13 14 15 16
5 6 9 9 6 5 11 14 10 8 2 6 3 5 5 7 5 7 6 11 8 7 9 38 49 40 29 21 22 20 20 12 6 2 2 5 8 11 13 14 16 16 16 16
5 6 8 12 6 5 6 9 13 6 4 1 2 5 7 7 6 5 3 3 4 23 45 43 45 38 31 17 19 21 23 20 10 3 4 6 9 11 12 12 14 16 16 18
Wind_Direction_850mb
345 353 356 357 358 359 11 62 47 10 7 37 35 24 332 320 304 350 288 256 276 313 231 206 213 236 219 181 148 174 203 136 167 194 235 188 160 165 157 125 190 51 141 284
347 354 360 4 4 1 7 54 30 27 33 67 358 319 343 352 323 330 344 328 348 334 341 341 251 344 66 173 153 158 163 237 106 159 329 164 210 192 135 107 88 233 113 266
349 356 4 11 12 5 22 47 28 30 55 70 356 358 353 349 323 325 338 312 339 350 15 352 343 6 137 179 168 170 189 165 197 172 192 137 207 175 142 147 127 169 242 306
358 6 9 13 19 22 48 50 93 62 339 354 342 335 11 351 3 342 334 349 4 350 343 350 358 359 42 170 170 181 209 223 208 276 231 169 175 177 170 149 182 162 214 217
16 8 13 15 23 38 57 67 96 105 331 325 351 7 21 328 341 299 324 352 333 319 6 15 314 328 327 340 162 161 189 226 159 28 49 117 185 184 188 196 182 271 187 250
5 7 18 16 26 42 54 52 83 133 7 358 61 27 314 305 325 277 282 329 312 312 334 309 286 263 260 265 287 192 204 210 81 335 24 112 203 204 189 181 168 199 206 225
23 14 24 18 26 44 44 48 76 107 70 45 57 332 300 293 316 268 286 310 299 305 315 316 279 238 248 245 254 230 172 127 104 148 37 200 239 282 179 196 171 197 178 197
50 32 31 22 27 36 36 41 39 84 104 245 296 321 285 315 320 281 293 311 304 318 321 355 0 20 11 328 24 10 350 127 97 145 193 280 9 50 130 163 261 201 205 220
69 56 40 27 28 26 28 40 35 54 123 225 297 294 330 329 334 340 294 332 344 349 297 30 25 9 329 326 336 17 27 69 119 162 114 32 304 329 250 139 298 243 180 184
92 72 55 29 29 23 16 30 33 21 17 167 235 267 283 360 9 298 303 338 338 5 3 52 46 320 272 355 336 331 346 358 81 47 82 310 273 320 73 117 253 355 182 164
98 70 61 30 26 21 12 7 16 29 313 278 228 304 273 306 5 354 318 334 0 343 5 18 339 341 324 339 281 314 277 35 344 103 70 2 2 34 146 247 354 146 141 149
106 77 54 19 19 14 11 360 357 353 319 307 313 332 317 285 282 266 294 272 276 336 343 352 318 332 350 10 313 348 336 176 226 169 214 264 318 294 337 68 98 97 122 129
130 76 58 18 13 8 10 2 354 350 331 350 46 41 351 323 307 297 213 278 356 27 1 289 291 285 136 336 283 306 300 173 241 30 286 311 73 79 103 114 110 97 104 110
152 52 61 9 8 357 352 350 15 33 24 47 331 343 15 325 325 310 256 258 275 311 320 260 262 262 192 248 260 206 232 6 250 286 297 312 236 158 116 107 103 99 98 99
167 247 42 2 357 345 352 75 76 42 22 276 305 332 14 343 327 293 254 242 248 285 305 271 258 269 264 207 350 263 194 208 162 233 259 201 193 160 142 126 108 96 98 93
187 203 346 353 2 349 116 239 75 16 32 84 333 321 334 328 328 324 269 230 236 211 234 267 272 264 216 262 263 264 281 274 265 292 328 236 159 158 153 140 94 63 36 28
187 192 320 348 97 116 90 44 48 5 16 75 316 329 330 348 355 327 331 191 196 195 250 242 261 277 257 248 242 252 342 329 253 185 137 114 161 191 180 173 140 96 49 18
168 224 325 138 132 112 85 63 341 359 62 65 73 287 335 359 339 326 263 205 213 231 255 247 228 253 240 246 239 253 270 269 202 184 235 256 189 183 186 197 232 282 305 318
169 190 133 136 144 105 39 82 90 68 71 101 66 1 296 343 339 307 266 217 227 217 245 248 197 215 233 231 223 242 216 208 248 198 180 169 190 196 225 272 291 297 293 295
169 152 152 152 118 121 128 69 56 39 26 43 46 299 282 323 336 297 293 239 241 229 227 231 224 252 250 248 246 228 206 217 224 236 254 243 217 234 270 292 299 301 302 302
167 154 130 140 144 125 95 75 49 56 46 42 279 259 299 301 247 275 255 293 252 251 217 227 229 271 280 190 172 166 173 197 286 264 256 266 262 269 279 286 293 300 301 302
165 142 130 140 141 121 92 13 73 149 176 303 287 300 302 294 272 259 260 253 221 254 165 237 252 301 5 164 179 179 234 261 267 280 280 279 279 282 288 295 303 311 317 318
142 135 132 152 97 50 131 188 293 284 176 201 324 327 283 298 262 265 252 253 242 204 218 234 237 339 304 216 217 225 258 272 264 244 234 230 271 335 348 348 343 336 331 331
141 162 112 126 289 234 191 177 173 128 182 322 322 279 263 274 271 249 257 251 264 319 260 246 7 352 337 267 239 249 241 175 143 113 83 51 25 5 346 337 337 337 337 338
161 168 179 177 144 133 156 138 177 189 247 293 303 279 245 256 271 242 272 250 236 225 339 11 335 328 317 281 248 244 212 188 159 112 90 58 28 3 353 344 343 343 343 343
162 138 101 128 117 182 191 206 237 171 252 313 211 262 262 261 248 259 257 327 43 360 330 318 333 331 317 286 249 234 215 194 188 162 38 11 360 349 338 333 337 339 339 342
125 93 127 135 116 147 159 172 145 132 38 96 231 234 238 328 289 254 53 141 267 312 317 326 333 328 324 294 257 229 218 193 186 195 317 327 330 327 327 330 333 336 339 342